JLY7325 SBBR-SBCY

Flight info

Callsign JLY7325
Flight time N/A
Altitude 34000
Route SIREM DCT LODOV DCT MABMA DCT BOKIM
Aircraft A320/M-SDE3FGHIRWY/LB1

Departure

Time N/A
Airport Presidente Juscelino Kubitschek International Airport (SBBR)

Arrival

Time 2026-05-05 21:16
Airport Várzea Grande–Marechal Rondon International Airport (SBCY)
Time Latitude Longitude Altitude Speed Heading
2026-05-05 20:40 -16.84246 -52.30842 35051 ft 455 kts 276°
2026-05-05 20:41 -16.83147 -52.37352 35052 ft 456 kts 275°
2026-05-05 20:41 -16.82237 -52.42771 35058 ft 456 kts 276°
2026-05-05 20:42 -16.81148 -52.49296 35060 ft 457 kts 275°
2026-05-05 20:42 -16.79884 -52.56889 35066 ft 457 kts 276°
2026-05-05 20:43 -16.78965 -52.62366 35068 ft 458 kts 276°
2026-05-05 20:43 -16.77860 -52.68914 35069 ft 458 kts 276°
2026-05-05 20:44 -16.76773 -52.75420 35072 ft 458 kts 276°
2026-05-05 20:44 -16.75675 -52.81967 35071 ft 459 kts 276°
2026-05-05 20:45 -16.74001 -52.91803 35068 ft 459 kts 276°
2026-05-05 20:45 -16.72888 -52.98361 35073 ft 459 kts 276°
2026-05-05 20:46 -16.71777 -53.04929 35074 ft 460 kts 276°
2026-05-05 20:46 -16.70657 -53.11442 35073 ft 460 kts 277°
2026-05-05 20:47 -16.69368 -53.17997 35074 ft 461 kts 278°
2026-05-05 20:47 -16.67975 -53.24536 35078 ft 462 kts 278°
2026-05-05 20:48 -16.66602 -53.31074 35074 ft 462 kts 278°
2026-05-05 20:48 -16.65263 -53.37622 35075 ft 462 kts 278°
2026-05-05 20:49 -16.63934 -53.44178 35073 ft 462 kts 278°
2026-05-05 20:49 -16.62600 -53.50729 35073 ft 462 kts 278°
2026-05-05 20:50 -16.61251 -53.57239 35066 ft 463 kts 278°
2026-05-05 20:50 -16.59894 -53.63794 35066 ft 462 kts 278°
2026-05-05 20:51 -16.58548 -53.70349 35065 ft 463 kts 278°
2026-05-05 20:51 -16.57191 -53.76905 35060 ft 463 kts 278°
2026-05-05 20:52 -16.55842 -53.83422 35057 ft 463 kts 278°
2026-05-05 20:52 -16.54485 -53.89973 35051 ft 463 kts 278°
2026-05-05 20:53 -16.53121 -53.96543 35045 ft 463 kts 278°
2026-05-05 20:53 -16.51750 -54.03104 35043 ft 464 kts 278°
2026-05-05 20:54 -16.50388 -54.09626 35039 ft 464 kts 279°
2026-05-05 20:54 -16.49011 -54.16190 35037 ft 464 kts 279°
2026-05-05 20:55 -16.47638 -54.22756 35032 ft 464 kts 279°
2026-05-05 20:55 -16.46268 -54.29330 35029 ft 464 kts 279°
2026-05-05 20:56 -16.44889 -54.35899 35030 ft 464 kts 279°
2026-05-05 20:56 -16.43502 -54.42470 35029 ft 464 kts 279°
2026-05-05 20:57 -16.42116 -54.49044 35029 ft 465 kts 279°
2026-05-05 20:57 -16.40734 -54.55611 34925 ft 462 kts 279°
2026-05-05 20:58 -16.40043 -54.58893 33979 ft 468 kts 279°
2026-05-05 20:58 -16.39347 -54.62220 32991 ft 471 kts 279°
2026-05-05 20:58 -16.38647 -54.65556 32060 ft 473 kts 279°
2026-05-05 20:58 -16.37939 -54.68914 31114 ft 475 kts 280°
2026-05-05 20:59 -16.37226 -54.72277 30209 ft 476 kts 280°
2026-05-05 20:59 -16.36513 -54.75628 29536 ft 471 kts 280°
2026-05-05 20:59 -16.35817 -54.78891 28910 ft 465 kts 280°
2026-05-05 20:59 -16.35122 -54.82159 28276 ft 460 kts 281°
2026-05-05 21:00 -16.34433 -54.85393 27656 ft 455 kts 281°
2026-05-05 21:00 -16.33748 -54.88599 27025 ft 451 kts 281°
2026-05-05 21:00 -16.33073 -54.91775 26408 ft 448 kts 281°
2026-05-05 21:00 -16.32408 -54.94931 25794 ft 445 kts 281°
2026-05-05 21:01 -16.31748 -54.98069 25182 ft 442 kts 281°
2026-05-05 21:01 -16.31090 -55.01187 24573 ft 440 kts 282°
2026-05-05 21:01 -16.30435 -55.04287 23973 ft 438 kts 282°
2026-05-05 21:01 -16.29779 -55.07378 23353 ft 436 kts 282°
2026-05-05 21:02 -16.29128 -55.10443 22747 ft 432 kts 282°
2026-05-05 21:02 -16.28477 -55.13483 22204 ft 428 kts 282°
2026-05-05 21:02 -16.27831 -55.16491 21655 ft 424 kts 282°
2026-05-05 21:02 -16.27191 -55.19476 21131 ft 421 kts 282°
2026-05-05 21:03 -16.26553 -55.22441 20612 ft 419 kts 282°
2026-05-05 21:03 -16.25924 -55.25357 20095 ft 418 kts 282°
2026-05-05 21:03 -16.25179 -55.28274 19567 ft 417 kts 289°
2026-05-05 21:03 -16.23979 -55.31012 19049 ft 416 kts 298°
2026-05-05 21:04 -16.22602 -55.33662 18521 ft 416 kts 298°
2026-05-05 21:04 -16.21232 -55.36303 17918 ft 415 kts 298°
2026-05-05 21:04 -16.19864 -55.38941 17357 ft 413 kts 298°
2026-05-05 21:04 -16.18506 -55.41560 16791 ft 410 kts 298°
2026-05-05 21:05 -16.17157 -55.44165 16208 ft 408 kts 298°
2026-05-05 21:05 -16.15817 -55.46754 15635 ft 406 kts 298°
2026-05-05 21:05 -16.14485 -55.49332 15053 ft 404 kts 298°
2026-05-05 21:05 -16.13160 -55.51896 14469 ft 402 kts 298°
2026-05-05 21:06 -16.11842 -55.54445 13886 ft 400 kts 298°
2026-05-05 21:06 -16.10532 -55.56974 13273 ft 396 kts 298°
2026-05-05 21:06 -16.09237 -55.59471 12747 ft 390 kts 298°
2026-05-05 21:06 -16.07956 -55.61941 12196 ft 385 kts 298°
2026-05-05 21:07 -16.06687 -55.64382 11603 ft 382 kts 299°
2026-05-05 21:07 -16.05433 -55.66797 11019 ft 378 kts 299°
2026-05-05 21:07 -16.04199 -55.69173 10705 ft 367 kts 299°
2026-05-05 21:07 -16.03014 -55.71460 10585 ft 351 kts 299°
2026-05-05 21:08 -16.01895 -55.73619 10464 ft 337 kts 299°
2026-05-05 21:08 -16.00804 -55.75722 10344 ft 323 kts 299°
2026-05-05 21:08 -15.99757 -55.77741 10132 ft 307 kts 299°
2026-05-05 21:08 -15.98768 -55.79650 9938 ft 301 kts 299°
2026-05-05 21:09 -15.97785 -55.81547 9394 ft 297 kts 299°
2026-05-05 21:09 -15.96810 -55.83429 8754 ft 297 kts 299°
2026-05-05 21:09 -15.95829 -55.85317 8389 ft 294 kts 299°
2026-05-05 21:09 -15.94860 -55.87176 7779 ft 292 kts 299°
2026-05-05 21:10 -15.93898 -55.89023 7174 ft 290 kts 300°
2026-05-05 21:10 -15.92941 -55.90858 6594 ft 288 kts 300°
2026-05-05 21:10 -15.91986 -55.92688 6085 ft 289 kts 300°
2026-05-05 21:10 -15.91033 -55.94511 5779 ft 286 kts 300°
2026-05-05 21:11 -15.90098 -55.96299 5462 ft 285 kts 299°
2026-05-05 21:11 -15.89113 -55.98127 4778 ft 296 kts 305°
2026-05-05 21:11 -15.87682 -55.99653 4415 ft 293 kts 326°
2026-05-05 21:11 -15.85963 -56.00669 4416 ft 277 kts 334°
2026-05-05 21:12 -15.84285 -56.01562 4286 ft 268 kts 334°
2026-05-05 21:12 -15.82632 -56.02441 3983 ft 267 kts 334°
2026-05-05 21:12 -15.80984 -56.03319 3653 ft 267 kts 334°
2026-05-05 21:12 -15.79351 -56.04189 3325 ft 259 kts 334°
2026-05-05 21:13 -15.77781 -56.05025 3004 ft 248 kts 334°
2026-05-05 21:13 -15.76278 -56.05825 2700 ft 238 kts 334°
2026-05-05 21:13 -15.74859 -56.06580 2405 ft 227 kts 334°
2026-05-05 21:13 -15.73506 -56.07301 2123 ft 211 kts 334°
2026-05-05 21:14 -15.72262 -56.07963 1901 ft 192 kts 334°
2026-05-05 21:14 -15.71123 -56.08569 1661 ft 173 kts 334°
2026-05-05 21:14 -15.70117 -56.09104 1438 ft 155 kts 334°
2026-05-05 21:14 -15.69180 -56.09602 1268 ft 149 kts 334°
2026-05-05 21:15 -15.68269 -56.10087 1082 ft 146 kts 334°
2026-05-05 21:15 -15.67366 -56.10570 875 ft 146 kts 333°
2026-05-05 21:15 -15.66463 -56.11053 682 ft 146 kts 334°
2026-05-05 21:15 -15.65605 -56.11505 600 ft 123 kts 332°
2026-05-05 21:16 -15.65091 -56.11777 598 ft 33 kts 333°
2026-05-05 21:16 -15.65061 -56.11830 597 ft 5 kts 233°
2026-05-05 21:16 -15.65080 -56.11865 597 ft 3 kts 244°
2026-05-05 21:16 -15.65087 -56.11881 597 ft 4 kts 248°
2026-05-05 21:17 -15.65078 -56.11910 597 ft 5 kts 311°
2026-05-05 21:17 -15.65072 -56.11940 597 ft 4 kts 254°
2026-05-05 21:17 -15.65080 -56.11959 597 ft 2 kts 243°
2026-05-05 21:17 -15.65083 -56.11964 597 ft 0 kts 243°